User: anonymous   Login
Location: Unspecified
(0.0000°N, 0.0000°E)
Time: 03:25:32
(UTC+01:00)
Language:

Iridium 4 Rocket - Orbit

View from above orbital plane
View from above orbital plane
View from above satellite
View from above satellite

Ground track
Ground track

The orbit data is extracted from the following two-line orbital elements,

1 24797U 97020F   15063.65504699  .00000793  00000-0  16721-3 0  9995
2 24797 086.8952 299.2468 0225225 221.9758 166.0805 14.43495036937397
Epoch (UTC): 04 March 2015 15:43:16
Eccentricity: 0.0225225
inclination: 86.8952°
perigee height: 586 km
apogee height: 907 km
right ascension of ascending node: 299.2468°
argument of perigee: 221.9758°
revolutions per day: 14.43495036
mean anomaly at epoch: 166.0805°
orbit number at epoch: 93739

The dashed part of the orbit path shows where the satellite is in the earth's shadow,  

DLR